Regional Weather Roundup
Issued by NWS

Home | Current Version | Previous Version | Graphics & Text | Print | Product List | Glossary On
Versions: 1 2 3 4 5 6 7 8 9 10 11 12 13 14 15 16 17 18 19 20 21 22 23 24 25 26 27 28 29 30 31 32 33 34 35 36 37 38 39 40 41 42 43 44 45 46 47 48 49 50
000
ASUS43 KOAX 251102
RWRNE

WEATHER ROUNDUP FOR NEBRASKA
NATIONAL WEATHER SERVICE OMAHA NE
600 AM CDT SUN JUN 25 2017

NOTES: SATELLITE DATA IS BEING USED TO AUGMENT CLOUD COVER ABOVE
       12000 FEET.
       "FAIR" INDICATES FEW OR NO CLOUDS BELOW 12,000 FEET WITH NO
       SIGNIFICANT WEATHER AND/OR OBSTRUCTIONS TO VISIBILITY.

  * THESE STATIONS DO NOT REPORT WEATHER SUCH AS RAIN...SNOW OR FOG.

NEZ001>004-019>022-054>056-251200-
NEBRASKA PANHANDLE

CITY           SKY/WX    TMP DP  RH WIND       PRES   REMARKS
SCOTTSBLUFF    LGT RAIN  56  36  47 E13       30.37S
ALLIANCE       CLOUDY    54  37  52 S9        30.36F
CHADRON        CLOUDY    50  40  68 N5        30.36S
GORDON         FAIR      48  40  76 CALM      30.38S
KIMBALL        MOCLDY    51  42  71 NE10      30.38R
SIDNEY         PTCLDY    51  36  56 E12       30.37R
$$

NEZ057>060-069>072-079>082-251200-
SOUTHWEST NEBRASKA

CITY           SKY/WX    TMP DP  RH WIND       PRES   REMARKS
NORTH PLATTE   CLOUDY    56  39  53 N8        30.37R
IMPERIAL       MOCLDY    52  47  83 N7        30.33S
LEXINGTON      CLOUDY    55  42  60 E3        30.35R
MCCOOK         CLOUDY    54  51  90 NE7       30.34R
OGALLALA       CLOUDY    56  34  43 E7        30.35F
$$

NEZ005>010-023>029-035>040-094-251200-
NORTH CENTRAL NEBRASKA

CITY           SKY/WX    TMP DP  RH WIND       PRES   REMARKS
VALENTINE      CLEAR     44  34  67 W6        30.37R
AINSWORTH      CLOUDY    46  40  79 W5        30.36S
BROKEN BOW     CLOUDY    53  39  59 N7        30.35R
O`NEILL        CLEAR     44  41  89 W6        30.35R
ORD            CLOUDY    48  40  73 CALM      30.33R
THEDFORD       CLOUDY    48  38  68 W5        30.38R
$$

NEZ041-046>049-061>064-073>077-083>087-251200-
SOUTH CENTRAL NEBRASKA

CITY           SKY/WX    TMP DP  RH WIND       PRES   REMARKS
GRAND ISLAND   CLOUDY    51  43  74 CALM      30.34R
AURORA         MOCLDY    49  44  83 N3        30.33R
HASTINGS       CLOUDY    54  44  69 NE5       30.35R
HEBRON         CLEAR     55  45  69 CALM      30.33R
HOLDREGE       CLOUDY    50  43  76 E6        30.34S
KEARNEY *      CLOUDY    54  43  66 N8        30.35R
YORK           MOCLDY    50  43  76 CALM      30.33R
$$

NEZ011>018-030>034-042>045-251200-
NORTHEAST NEBRASKA

CITY           SKY/WX    TMP DP  RH WIND       PRES   REMARKS
NORFOLK        CLOUDY    45  40  82 W5        30.31R
ALBION         CLOUDY    51  40  67 N6        30.33R
BLAIR          CLEAR     53  43  70 NW5       30.29R
FREMONT        CLOUDY    53  44  70 W5        30.31R
TEKAMAH        PTCLDY    48  41  76 W5        30.29R
WAYNE          CLEAR     44  43  97 CALM      30.30S
$$

NEZ050>053-065>068-078-088>093-251200-
SOUTHEAST NEBRASKA

CITY           SKY/WX    TMP DP  RH WIND       PRES   REMARKS
LINCOLN        PTCLDY    49  43  80 N6        30.31S
OMAHA EPPLEY   PTCLDY    52  44  74 N5        30.28R
BEATRICE       CLOUDY    51  46  85 N5        30.31R
FALLS CITY     PTCLDY    54  47  77 NW5       30.27R
NEBRASKA CITY  CLEAR     54  46  73 N5        30.29R
PLATTSMOUTH    CLEAR     52  44  75 NW6       30.29R
$$

NEZ044-045-051>053-067-251200-
OMAHA AREA

CITY           SKY/WX    TMP DP  RH WIND       PRES   REMARKS
OMAHA EPPLEY   PTCLDY    52  44  74 N5        30.28R
BLAIR          CLEAR     53  43  70 NW5       30.29R
FREMONT        CLOUDY    53  44  70 W5        30.31R
MILLARD        MOCLDY    56  46  69 CALM      30.28F
OFFUTT AFB     MOCLDY    54  45  70 W6        30.28R
PLATTSMOUTH    CLEAR     52  44  75 NW6       30.29R
WAHOO          PTSUNNY   54  42  65 NW5       30.30R
$$




USA.gov is the U.S. government's official web portal to all federal, state and local government web resources and services.